Regional Weather Roundup
Issued by NWS

Home | Current Version | Previous Version | Text Only | Print | Product List | Glossary On
Versions: 1 2 3 4 5 6 7 8 9 10 11 12 13 14 15 16 17 18 19 20 21 22 23 24 25 26 27 28 29 30 31 32 33 34 35 36 37 38 39 40 41 42 43 44 45 46 47 48 49 50
000
ASUS46 KSEW 221910
RWRWA

WASHINGTON REGIONAL WEATHER ROUNDUP
NATIONAL WEATHER SERVICE SEATTLE WA
1200 PM PDT MON SEP 22 2014

NOTE:"FAIR" INDICATES FEW OR NO CLOUDS BELOW 12,000 FEET WITH NO
SIGNIFICANT WEATHER AND/OR OBSTRUCTIONS TO VISIBILITY.

WAZ505-507>509-222000-
SEATTLE, TACOMA, EVERETT, AND VICINITY

CITY           SKY/WX    TMP DP  RH WIND       PRES   REMARKS
EVERETT        PTSUNNY   65  56  72 SE8       30.00F
BOEING FIELD   PTSUNNY   71  55  56 SE10G18   29.98F
RENTON         CLOUDY    66  58  75 SE6       29.99F
SEATAC AIRPORT PTSUNNY   68  56  65 S9        30.00F
JBLM-MCCHORD   PTSUNNY   69  54  58 SW12      29.99F
PUYALLUP       NOT AVBL
JBLM-FT LEWIS  CLOUDY    68  54  60 S10       29.99F
TACOMA NARROWS PTSUNNY   67  56  67 SE7       29.99F
$$

WAZ001-503-506-510-514-515-222000-
NORTH INTERIOR

CITY           SKY/WX    TMP DP  RH WIND       PRES   REMARKS
BELLINGHAM     CLOUDY    65  57  75 VRB6      29.97F
FRIDAY HARBOR    N/A    N/A N/A N/A MISG      30.00S
EASTSOUND      CLOUDY    61  57  88 S8        29.97S
PORT ANGELES     N/A     67  56  67 MISG      29.97F
NAS WHIDBEY    CLOUDY    66  56  70 S6        29.98F
BURLINGTON     PTSUNNY   66  57  72 SE9       29.99F
$$

WAZ020-022-039-040-504-511-512-222000-
SOUTHWEST INTERIOR

CITY           SKY/WX    TMP DP  RH WIND       PRES   REMARKS
SHELTON        CLOUDY    65  55  70 W10       29.97F
OLYMPIA        CLOUDY    68  55  63 S8        29.99F
CHEHALIS       CLOUDY    68  57  68 SW6       30.00S
KELSO          CLOUDY    68  55  64 S9        30.04F
VANCOUVER      CLOUDY    67  52  58 SE6       30.01F
SCAPPOOSE, OR  CLOUDY    68  54  60 VRB6      30.00F
PORTLAND, OR   CLOUDY    66  54  65 SE6       30.02F
$$

WAZ021-516-517-222000-
WASHINGTON COAST

CITY           SKY/WX    TMP DP  RH WIND       PRES   REMARKS
FORKS          CLOUDY    61  59  93 S8        29.97S FOG
HOQUIAM        PTSUNNY   63  59  87 S5        30.00S
ASTORIA, OR    PTSUNNY   67  56  67 SW8       29.98F
$$

WAZ019-023-024-040-518-519-222000-
CASCADE MOUNTAINS AND COLUMBIA GORGE

CITY           SKY/WX    TMP DP  RH WIND       PRES   REMARKS
STAMPEDE PASS  FOG       53  52  96 VRB6      30.05S VSB<1/4
TROUTDALE, OR  CLOUDY    66  53  63 SW7       30.01F
THE DALLES, OR MOSUNNY   76  52  43 NW16      29.91F
$$

WAZ026-027-041>044-520-521-222000-
EAST SLOPES

CITY           SKY/WX    TMP DP  RH WIND       PRES   REMARKS
OMAK           CLOUDY    71  45  39 S9        29.91R
WENATCHEE      LGT RAIN  74  52  46 VRB3      29.88F
ELLENSBURG     CLOUDY    71  58  63 W14       29.91F
YAKIMA         LGT RAIN  72  56  57 NW5       29.90S
$$

WAZ028-034-035-222000-
COLUMBIA BASIN

CITY           SKY/WX    TMP DP  RH WIND       PRES   REMARKS
EPHRATA        CLOUDY    76  45  33 CALM      29.89S
MOSES LAKE     CLOUDY    76  49  38 W6        29.90S
PASCO          PTSUNNY   78  54  43 SW13      29.89S
HERMISTON, OR  PTSUNNY   77  52  41 SW12      29.91S
$$

WAZ036>038-222000-
NORTHEAST WASHINGTON

CITY           SKY/WX    TMP DP  RH WIND       PRES   REMARKS
SPOKANE GEIGER MOSUNNY   79  45  29 SW13      29.95F
SPOKANE FELTS  MOSUNNY   78  44  29 CALM      29.95F
FAIRCHILD AFB  MOSUNNY   79  46  30 SW8       29.95F
COEURDALENE,ID MOSUNNY   73  48  40 SE7       29.95F
DEER PARK      MOSUNNY   72  46  39 S6        29.96S
$$

WAZ029>033-222000-
SOUTHEAST WASHINGTON

CITY           SKY/WX    TMP DP  RH WIND       PRES   REMARKS
PULLMAN        PTSUNNY   78  47  33 W10       30.00S
LEWISTON, ID   CLOUDY    71  45  39 W5        29.95R
WALLA WALLA    MOSUNNY   84  49  29 SW13      29.93F
PENDLETON, OR  MOSUNNY   81  47  30 W13       29.94S
$$


USA.gov is the U.S. government's official web portal to all federal, state and local government web resources and services.